Port Angeles, WA

7:27 PM PDT on April 24, 2017 (GMT -0700)
Fairchild International

Weather History for KCLM - June, 2013

Change the Weather History Date:

Sunday, June 23, 2013

  Actual Average Record
Temperature  
Mean Temperature 58 °F -  
Max Temperature 62 °F 65 °F 83 °F (1992)
Min Temperature 55 °F 49 °F 36 °F (1985)
Degree Days  
Heating Degree Days 7    
Growing Degree Days 8 (Base 50)    
Moisture  
Dew Point 56 °F    
Average Humidity 90    
Maximum Humidity 96    
Minimum Humidity 83    
Precipitation  
Precipitation 0.18 in - - ()
Sea Level Pressure  
Sea Level Pressure 29.72 in    
Wind  
Wind Speed 2 mph (East)    
Max Wind Speed 6 mph    
Max Gust Speed -    
Visibility 9 miles    
Events Rain    
Averages and records for this station are not official NWS values.
T = Trace of Precipitation, MM = Missing Value Source: NWS Daily Summary

Daily Weather History Graph

Daily Weather History Graph

Search for Another Location

Airport or City:

Trip Planner

Search our weather history database for the weather conditions in past years. The results will help you decide how hot, cold, wet, or windy it might be!

Date:

Astronomy

Jun. 23, 2013 Rise Set
Actual Time 5:14 AM PDT 9:18 PM PDT
Civil Twilight 4:32 AM PDT 9:59 PM PDT
Nautical Twilight 3:34 AM PDT 10:57 PM PDT
Astronomical Twilight 1:52 AM PDT 12:39 AM PDT
Moon 9:27 PM PDT (6/23) 5:44 AM PDT (6/23)
Length of Visible Light 17h 26m
Length of Day
16h 03m
Full, 100% of the Moon is Illuminated
Jun 23
Full
Jun 29
Last Quarter
Jul 8
New
Jul 15
First Quarter
Jul 22
Full

Hourly Weather History & Observations

Time (PDT) Temp. Dew Point Humidity Pressure Visibility Wind Dir Wind Speed Gust Speed Precip Events Conditions
12:53 AM 55.9 °F 54.0 °F 93% 29.87 in 10.0 mi Calm Calm - N/A   Clear
1:53 AM 55.9 °F 54.0 °F 93% 29.85 in 10.0 mi Calm Calm - N/A   Clear
2:53 AM 57.9 °F 54.0 °F 87% 29.84 in 10.0 mi SSE 5.8 mph - N/A   Mostly Cloudy
3:53 AM 59.0 °F 55.0 °F 87% 29.83 in 10.0 mi Calm Calm - 0.00 in Rain Light Rain
4:53 AM 59.0 °F 54.0 °F 83% 29.82 in 10.0 mi SSE 4.6 mph - 0.00 in   Mostly Cloudy
5:53 AM 57.9 °F 55.9 °F 93% 29.81 in 10.0 mi South 3.5 mph - 0.00 in Rain Light Rain
6:53 AM 59.0 °F 55.9 °F 90% 29.80 in 10.0 mi SE 4.6 mph - 0.01 in Rain Light Rain
7:53 AM 60.1 °F 55.9 °F 86% 29.80 in 10.0 mi SE 4.6 mph - 0.02 in Rain Light Rain
8:53 AM 60.1 °F 55.9 °F 86% 29.79 in 10.0 mi ESE 5.8 mph - 0.02 in Rain Light Rain
9:53 AM 60.1 °F 55.9 °F 86% 29.78 in 10.0 mi NNE 3.5 mph - 0.03 in Rain Light Rain
10:33 AM 60.1 °F 57.0 °F 90% 29.77 in 10.0 mi Variable 3.5 mph - 0.00 in Rain Light Rain
10:53 AM 60.1 °F 55.9 °F 86% 29.77 in 10.0 mi Variable 3.5 mph - 0.01 in Rain Light Rain
11:53 AM 60.1 °F 57.0 °F 90% 29.77 in 10.0 mi Calm Calm - 0.01 in Rain Light Rain
12:09 PM 60.1 °F 57.0 °F 90% 29.76 in 10.0 mi NE 3.5 mph - 0.01 in Rain Light Rain
12:18 PM 60.1 °F 57.0 °F 90% 29.76 in 9.0 mi Calm Calm - 0.01 in Rain Light Rain
12:53 PM 59.0 °F 55.9 °F 90% 29.75 in 7.0 mi NNE 3.5 mph - 0.03 in Rain Light Rain
1:53 PM 61.0 °F 55.9 °F 83% 29.74 in 10.0 mi East 3.5 mph - 0.01 in Rain Light Rain
2:20 PM 61.0 °F 57.0 °F 87% 29.73 in 10.0 mi East 3.5 mph - 0.00 in   Overcast
2:53 PM 61.0 °F 57.0 °F 87% 29.73 in 10.0 mi Calm Calm - 0.00 in Rain Light Rain
3:35 PM 59.0 °F 55.9 °F 90% 29.71 in 10.0 mi NE 4.6 mph - 0.01 in   Overcast
3:53 PM 60.1 °F 57.0 °F 90% 29.71 in 10.0 mi Variable 3.5 mph - 0.01 in   Overcast
4:17 PM 60.1 °F 55.9 °F 86% 29.71 in 10.0 mi East 3.5 mph - N/A   Overcast
4:53 PM 60.1 °F 55.9 °F 86% 29.70 in 10.0 mi Calm Calm - N/A   Overcast
5:43 PM 61.0 °F 57.0 °F 87% 29.67 in 10.0 mi Calm Calm - N/A   Overcast
5:53 PM 61.0 °F 57.0 °F 87% 29.67 in 10.0 mi Calm Calm - N/A   Overcast
6:13 PM 61.0 °F 57.0 °F 87% 29.66 in 10.0 mi Calm Calm - N/A   Overcast
6:45 PM 60.1 °F 57.0 °F 90% 29.66 in 10.0 mi Calm Calm - 0.00 in Rain Light Rain
6:53 PM 60.1 °F 57.0 °F 90% 29.66 in 10.0 mi NE 3.5 mph - 0.00 in   Overcast
7:53 PM 60.1 °F 57.0 °F 90% 29.65 in 10.0 mi Calm Calm - 0.01 in Rain Light Rain
8:11 PM 59.0 °F 57.0 °F 93% 29.65 in 9.0 mi Calm Calm - 0.00 in Rain Light Rain
8:53 PM 59.0 °F 57.0 °F 93% 29.64 in 9.0 mi SSE 3.5 mph - 0.01 in Rain Light Rain
9:02 PM 59.0 °F 57.0 °F 93% 29.63 in 10.0 mi Calm Calm - 0.00 in Rain Light Rain
9:28 PM 59.0 °F 57.0 °F 93% 29.63 in 10.0 mi Calm Calm - 0.00 in   Overcast
9:53 PM 60.1 °F 57.9 °F 93% 29.63 in 7.0 mi Calm Calm - 0.00 in   Overcast
10:18 PM 59.0 °F 57.0 °F 93% 29.63 in 4.0 mi Calm Calm - 0.00 in   Overcast
10:34 PM 59.0 °F 57.9 °F 96% 29.62 in 4.0 mi Calm Calm - 0.01 in   Overcast
10:53 PM 59.0 °F 57.9 °F 96% 29.62 in 5.0 mi Calm Calm - 0.01 in Rain Light Rain
11:53 PM 59.0 °F 57.9 °F 96% 29.61 in 2.5 mi Calm Calm - 0.00 in   Overcast